Temp
77 80 83 83 76 74 70 72 75 78 81 85 87 85 84 88 85 79 89 91 91 89 88 85 81 81 80 80 81 80 80 80 80 80 80 80 80 80 80 80 80 81 81 81 81 81 81 81 80
80 80 83 79 72 68 72 72 75 79 82 86 88 88 87 85 93 96 90 88 89 88 86 88 80 80 80 80 80 80 80 80 80 80 80 79 79 80 80 80 80 81 81 81 81 81 81 80 80
80 79 81 76 69 68 71 72 74 79 84 83 84 89 87 85 91 91 92 88 89 86 87 86 80 80 80 80 80 80 80 80 80 80 80 79 79 79 79 80 80 81 81 81 81 81 80 80 80
81 81 75 70 67 67 69 73 75 78 83 85 83 82 91 91 89 91 91 89 89 89 89 83 80 80 80 80 79 79 79 79 79 80 79 79 79 79 79 79 80 81 81 81 81 80 80 80 79
79 76 69 63 63 64 72 76 77 76 77 80 81 79 82 90 94 94 88 88 88 89 89 85 79 80 80 80 80 79 79 79 79 79 79 79 79 79 79 79 80 80 80 80 80 79 79 79 79
74 73 66 63 62 66 71 74 75 74 76 78 79 78 83 89 93 94 92 88 90 87 87 86 80 79 79 80 79 79 78 78 79 79 79 79 79 79 79 79 79 80 80 80 79 78 78 78 78
71 71 63 59 59 65 68 74 71 70 73 75 81 74 84 89 93 94 92 89 89 88 86 84 84 81 79 79 78 78 78 78 78 78 78 78 78 78 79 79 79 79 79 79 78 78 78 77 78
72 71 60 60 59 62 69 70 73 72 71 81 82 74 74 85 91 92 90 88 88 88 89 86 84 85 84 84 78 78 78 78 78 78 78 78 78 78 78 77 78 78 78 78 78 78 77 77 77
71 66 60 60 59 62 71 67 74 77 74 76 79 79 83 88 91 91 87 83 84 85 88 89 87 86 86 86 83 79 78 78 78 79 78 78 86 84 83 82 78 78 78 78 78 77 77 77 77
69 64 59 64 66 65 68 68 69 70 71 73 75 82 85 87 87 86 88 85 81 80 84 89 88 85 86 86 84 85 85 85 85 84 82 86 86 85 86 83 78 78 78 78 77 77 77 78 89
64 62 63 65 68 69 66 68 71 68 67 71 71 76 81 82 83 83 86 88 88 82 81 85 84 82 85 87 85 86 86 85 84 83 83 84 84 83 85 85 84 84 80 86 83 83 87 86 88
61 64 65 67 69 67 66 69 67 69 70 76 77 78 78 79 80 81 82 85 87 83 83 82 83 81 81 86 85 85 85 84 84 84 82 81 82 82 83 84 86 84 87 85 85 87 84 84 84
61 63 65 69 67 67 69 66 67 67 74 77 77 77 77 78 80 81 81 83 87 85 84 84 81 78 80 81 84 84 84 84 84 83 82 83 83 81 82 81 84 84 85 85 84 84 84 84 85
64 64 64 65 67 67 64 66 65 70 75 73 74 74 76 77 79 80 80 81 82 84 84 85 81 80 80 81 81 82 83 83 83 83 82 81 82 80 82 79 82 81 77 82 84 83 83 84 85
63 59 62 64 66 64 65 61 63 71 73 70 72 73 74 76 79 79 80 78 80 83 84 84 83 83 81 81 81 82 83 84 83 83 81 80 80 79 80 79 79 80 80 81 82 81 82 83 84
59 58 54 63 63 65 62 53 65 71 69 67 69 71 73 75 77 78 79 79 79 80 81 82 85 84 81 80 81 83 83 83 83 83 82 80 79 79 78 79 80 82 81 83 82 82 82 83 84
54 49 51 54 63 61 60 54 64 68 67 65 68 69 71 73 76 78 80 80 79 78 79 80 80 82 82 78 78 80 81 82 82 82 82 79 79 79 79 80 82 81 82 82 82 80 81 81 81
48 49 51 51 58 59 56 56 62 66 65 64 66 67 68 70 73 77 77 79 78 78 77 80 80 80 78 77 76 79 82 82 83 81 81 79 79 79 78 81 80 80 81 80 80 79 80 82 82
51 49 48 54 59 54 54 55 59 64 64 64 64 64 66 67 73 73 74 74 74 74 74 74 78 77 74 73 73 76 77 80 81 81 80 78 77 78 77 80 78 78 78 79 78 78 76 79 82
51 49 50 53 56 53 54 52 59 61 60 60 58 59 60 62 65 67 68 70 70 69 70 73 80 77 75 74 73 79 77 78 82 80 78 79 78 78 78 78 78 77 78 76 77 77 78 80 81
50 48 48 47 53 56 52 53 54 56 60 60 60 61 61 60 60 63 64 66 68 69 69 69 79 78 76 76 73 74 75 74 76 77 74 78 78 79 79 78 79 78 80 80 77 77 77 78 80
45 53 50 48 46 42 51 41 53 52 55 56 57 59 59 59 60 61 62 63 65 68 71 70 75 76 75 75 71 72 71 74 73 74 75 77 78 78 79 79 79 78 81 80 79 79 79 80 78
48 53 50 48 44 42 46 42 50 52 50 51 55 57 58 58 58 58 59 61 65 68 69 70 72 74 77 75 72 71 75 79 79 74 73 74 77 78 79 79 78 78 80 79 80 78 76 81 82
53 50 47 45 45 37 42 43 47 47 45 49 54 56 55 56 56 57 59 61 63 68 67 68 71 75 74 73 72 71 73 74 75 72 73 74 75 75 75 77 78 78 79 78 80 78 77 79 81
52 47 36 37 39 38 45 42 47 49 47 50 50 51 53 55 55 55 56 56 60 62 64 66 68 72 75 74 72 73 74 76 76 75 74 72 75 75 73 73 74 77 77 79 80 77 78 78 80
46 44 35 25 31 37 47 38 48 51 51 52 53 53 53 54 54 54 56 55 57 59 61 63 63 60 72 76 74 75 77 76 80 78 80 77 77 78 76 74 75 76 78 79 78 80 80 79 79
45 42 45 33 37 31 43 46 50 51 51 49 49 52 51 52 53 53 56 56 56 57 58 60 62 58 58 61 75 74 74 76 77 78 78 77 79 80 78 75 76 77 78 78 78 81 77 78 78
47 49 37 38 28 28 41 42 41 45 43 42 43 48 50 52 53 55 56 56 56 56 58 60 62 59 57 57 61 74 77 75 74 77 76 78 79 80 78 77 77 77 78 78 78 79 78 77 79
44 42 41 38 35 31 31 41 46 44 41 40 42 46 48 50 53 54 55 56 58 58 57 59 60 62 58 57 58 61 73 78 78 77 77 78 78 79 79 79 78 78 78 78 76 78 78 77 77
48 44 41 31 33 36 35 37 49 47 46 46 44 47 48 50 52 53 54 55 56 56 56 56 58 60 62 60 59 59 62 76 77 77 78 79 78 80 80 80 79 79 79 78 76 77 77 76 76
MSLP
1012.13 1012.03 1011.91 1011.24 1010.97 1009.74 1008.40 1007.93 1007.79 1006.76 1006.38 1006.61 1006.38 1005.86 1005.70 1005.31 1004.69 1004.37 1004.90 1004.78 1005.04 1005.85 1006.77 1007.51 1007.22 1007.65 1008.20 1008.58 1008.99 1009.34 1009.88 1010.53 1011.05 1011.41 1011.57 1012.11 1012.72 1013.21 1013.55 1013.93 1014.25 1014.59 1014.89 1015.14 1015.34 1015.61 1015.84 1016.01 1016.19
1012.09 1011.97 1011.57 1010.99 1010.21 1008.97 1008.17 1008.26 1007.72 1007.47 1007.48 1006.91 1006.04 1005.58 1005.22 1004.77 1004.88 1004.51 1004.99 1005.55 1005.47 1005.84 1006.99 1007.52 1007.84 1007.88 1008.43 1008.83 1009.05 1009.43 1009.91 1010.40 1010.94 1011.38 1011.64 1012.08 1012.69 1013.33 1013.71 1014.00 1014.35 1014.67 1014.96 1015.22 1015.43 1015.70 1015.93 1016.11 1016.28
1012.08 1011.96 1011.14 1010.85 1010.28 1008.95 1008.29 1008.49 1008.55 1008.32 1007.75 1007.36 1006.62 1006.04 1005.71 1005.63 1005.69 1005.79 1005.96 1006.22 1006.43 1006.01 1007.07 1007.75 1008.46 1008.13 1008.57 1009.07 1009.35 1009.56 1010.02 1010.51 1010.95 1011.40 1011.64 1012.03 1012.68 1013.26 1013.79 1014.15 1014.47 1014.73 1015.02 1015.27 1015.52 1015.71 1015.92 1016.23 1016.42
1011.88 1011.76 1012.31 1011.38 1010.25 1010.04 1009.69 1009.46 1009.38 1008.64 1007.96 1007.65 1007.47 1006.52 1006.11 1006.73 1006.83 1006.96 1006.39 1006.55 1006.80 1006.82 1006.76 1007.98 1008.35 1009.02 1008.77 1009.02 1009.37 1009.86 1010.33 1010.46 1010.95 1011.46 1011.78 1012.09 1012.61 1013.26 1013.85 1014.20 1014.59 1014.87 1015.07 1015.28 1015.59 1015.87 1016.07 1016.26 1016.41
1012.08 1011.85 1011.43 1011.27 1010.86 1010.90 1010.53 1010.24 1009.91 1009.38 1009.30 1008.56 1008.06 1006.85 1006.95 1006.88 1007.09 1007.05 1007.11 1006.98 1007.04 1007.31 1006.74 1007.79 1008.56 1008.94 1009.39 1009.34 1009.55 1009.98 1010.37 1010.77 1010.96 1011.52 1011.99 1012.32 1012.74 1013.22 1013.76 1014.29 1014.63 1014.93 1015.11 1015.38 1015.74 1016.04 1016.23 1016.35 1016.48
1011.85 1012.08 1011.48 1011.20 1011.33 1011.40 1011.19 1011.20 1010.59 1010.41 1010.26 1009.64 1008.55 1007.69 1006.88 1006.88 1006.49 1006.71 1007.03 1007.20 1007.19 1007.46 1007.99 1007.67 1008.48 1008.84 1009.34 1009.54 1009.69 1010.02 1010.44 1010.83 1011.23 1011.54 1012.14 1012.62 1012.99 1013.38 1013.81 1014.24 1014.62 1014.96 1015.18 1015.47 1015.76 1016.08 1016.25 1016.37 1016.54
1011.75 1011.82 1011.85 1012.03 1012.05 1011.64 1011.60 1011.96 1011.43 1011.36 1010.70 1009.96 1009.58 1008.32 1007.22 1006.91 1007.21 1007.02 1006.71 1007.11 1007.36 1007.70 1008.07 1008.16 1008.46 1009.09 1009.41 1009.55 1009.80 1010.08 1010.53 1010.85 1011.23 1011.77 1012.21 1012.79 1013.14 1013.49 1013.83 1014.23 1014.62 1014.95 1015.24 1015.53 1015.79 1015.97 1016.20 1016.40 1016.52
1012.31 1012.17 1012.29 1012.46 1012.41 1012.11 1012.28 1012.38 1012.28 1011.77 1011.14 1010.74 1010.07 1008.60 1007.97 1007.67 1007.22 1006.91 1006.99 1007.13 1007.46 1007.67 1007.94 1008.42 1008.44 1008.99 1009.41 1009.81 1010.13 1010.26 1010.53 1011.03 1011.36 1011.84 1012.33 1012.83 1013.30 1013.67 1014.05 1014.40 1014.78 1015.08 1015.29 1015.49 1015.82 1016.10 1016.26 1016.49 1016.64
1012.88 1012.52 1012.43 1012.61 1012.79 1012.73 1012.51 1012.35 1012.23 1012.00 1011.40 1011.15 1010.44 1009.89 1009.08 1008.45 1007.76 1007.08 1007.18 1007.41 1007.62 1007.82 1007.78 1008.10 1008.53 1008.82 1009.28 1009.63 1010.29 1010.64 1010.71 1010.93 1011.38 1011.91 1012.46 1012.93 1013.18 1013.66 1014.03 1014.31 1014.79 1015.04 1015.30 1015.54 1015.78 1016.07 1016.33 1016.50 1016.66
1012.89 1012.90 1013.08 1013.52 1013.35 1013.09 1012.91 1012.57 1012.22 1011.95 1011.18 1010.51 1010.26 1009.69 1009.03 1008.55 1007.90 1007.38 1006.88 1007.02 1007.54 1007.58 1007.77 1007.83 1008.06 1008.53 1009.08 1009.62 1010.09 1010.58 1010.81 1011.09 1011.27 1011.58 1012.32 1012.52 1012.87 1013.46 1013.76 1014.25 1014.83 1015.07 1015.29 1015.57 1015.88 1016.08 1016.31 1016.42 1016.01
1013.49 1013.26 1013.65 1013.46 1013.37 1013.34 1013.05 1012.45 1012.28 1011.61 1010.88 1010.70 1009.95 1009.39 1008.77 1008.43 1008.13 1007.62 1007.14 1006.63 1006.59 1007.26 1007.54 1007.69 1008.09 1008.31 1008.70 1009.12 1009.63 1010.16 1010.47 1010.91 1011.36 1011.59 1011.93 1012.42 1012.97 1013.44 1013.82 1014.09 1014.65 1014.89 1015.31 1015.18 1015.59 1015.79 1015.71 1015.88 1015.88
1013.71 1013.87 1013.86 1013.61 1013.50 1013.32 1012.78 1012.57 1011.91 1011.50 1011.10 1010.71 1010.19 1009.65 1009.15 1008.31 1007.90 1007.70 1007.25 1006.76 1006.19 1006.80 1006.82 1007.36 1007.80 1008.24 1008.35 1008.54 1009.23 1009.55 1010.04 1010.60 1011.00 1011.37 1011.88 1012.29 1012.70 1013.23 1013.47 1013.78 1014.04 1014.59 1014.65 1014.91 1015.22 1015.28 1015.63 1015.81 1015.93
1013.98 1013.99 1013.92 1013.70 1013.58 1013.24 1012.79 1012.41 1011.99 1011.35 1010.75 1010.43 1010.08 1009.71 1009.04 1008.40 1007.77 1007.53 1007.28 1006.79 1005.94 1005.93 1006.26 1006.50 1007.09 1007.72 1008.17 1008.48 1008.90 1009.22 1009.58 1010.08 1010.47 1011.22 1011.55 1011.73 1012.21 1012.87 1013.34 1013.68 1013.93 1014.23 1014.55 1014.72 1015.02 1015.27 1015.55 1015.67 1015.73
1014.26 1014.10 1013.85 1013.70 1013.39 1013.14 1012.66 1011.94 1011.92 1011.11 1010.58 1010.23 1009.96 1009.46 1009.00 1008.51 1007.77 1007.34 1007.04 1006.47 1006.11 1005.70 1005.70 1005.83 1006.35 1006.90 1007.63 1007.82 1008.32 1008.88 1009.32 1009.76 1010.19 1010.65 1011.36 1011.76 1011.92 1012.37 1012.90 1013.54 1013.71 1014.11 1014.85 1014.83 1014.85 1015.17 1015.49 1015.54 1015.66
1014.43 1014.01 1013.74 1013.35 1013.36 1013.03 1012.90 1011.59 1011.13 1010.93 1010.75 1010.42 1009.82 1009.38 1008.96 1008.39 1007.73 1007.02 1006.81 1006.54 1006.00 1005.55 1005.25 1005.21 1005.59 1006.14 1006.81 1007.26 1007.65 1008.27 1008.73 1009.33 1009.89 1010.21 1010.94 1011.57 1011.89 1012.26 1012.50 1013.12 1013.64 1013.95 1014.41 1014.59 1014.88 1015.26 1015.43 1015.54 1015.67
1014.49 1014.49 1013.84 1013.43 1013.45 1012.98 1013.09 1011.17 1010.76 1010.91 1010.61 1010.07 1009.59 1009.07 1008.52 1008.02 1007.56 1007.09 1006.71 1006.37 1006.01 1005.38 1004.78 1004.91 1004.91 1005.30 1005.71 1006.30 1006.89 1007.53 1008.08 1008.62 1009.29 1009.82 1010.34 1011.03 1011.58 1012.19 1012.64 1012.84 1013.16 1013.53 1013.99 1014.20 1014.57 1015.02 1015.25 1015.38 1015.61
1015.02 1014.49 1014.19 1013.62 1013.43 1013.20 1012.92 1011.45 1011.22 1011.06 1010.36 1009.72 1009.29 1008.74 1008.16 1007.64 1007.25 1006.63 1006.06 1005.97 1005.61 1005.34 1004.71 1004.27 1004.37 1004.40 1004.96 1005.53 1006.21 1006.65 1007.41 1008.05 1008.52 1009.22 1009.76 1010.64 1011.07 1011.58 1012.07 1012.32 1012.58 1013.22 1013.48 1013.91 1014.39 1014.94 1015.14 1015.24 1015.57
1015.11 1014.75 1014.37 1014.02 1013.36 1013.10 1012.34 1011.15 1011.00 1010.82 1010.25 1009.70 1009.11 1008.81 1008.20 1007.52 1006.85 1006.47 1006.09 1005.56 1005.16 1004.65 1004.23 1003.60 1003.48 1003.64 1004.48 1005.30 1005.84 1006.35 1006.65 1007.35 1007.94 1008.58 1008.97 1009.79 1010.45 1011.11 1011.61 1011.61 1012.04 1012.61 1013.08 1013.65 1014.25 1014.65 1015.03 1015.13 1015.24
1015.99 1015.54 1014.67 1014.11 1013.52 1013.30 1011.91 1011.05 1010.34 1010.29 1010.09 1009.76 1009.25 1008.84 1008.33 1007.62 1007.08 1006.90 1006.27 1005.88 1005.06 1004.38 1003.79 1003.03 1002.55 1002.87 1003.83 1004.62 1005.05 1005.30 1005.38 1006.14 1007.17 1007.91 1008.54 1009.28 1009.88 1010.29 1010.91 1011.30 1011.78 1012.22 1012.59 1013.02 1013.85 1014.41 1014.85 1015.08 1015.17
1016.01 1015.38 1014.64 1014.16 1013.93 1013.67 1011.99 1010.16 1010.33 1010.46 1010.61 1010.60 1010.44 1010.00 1009.46 1008.61 1007.78 1007.16 1006.66 1006.09 1005.47 1004.55 1003.66 1002.58 1001.54 1002.02 1002.58 1003.37 1004.23 1004.61 1005.19 1005.29 1006.03 1007.07 1007.98 1008.48 1009.06 1009.47 1010.05 1010.58 1011.24 1011.70 1012.19 1012.85 1013.53 1014.02 1014.15 1014.51 1014.92
1016.08 1015.49 1014.99 1014.72 1013.93 1013.20 1012.23 1010.00 1010.17 1010.78 1010.64 1010.78 1011.00 1010.88 1010.32 1009.74 1008.88 1007.89 1007.14 1006.34 1005.69 1004.46 1003.45 1002.53 1001.23 1001.12 1001.64 1002.17 1003.43 1004.32 1005.12 1005.66 1005.78 1006.12 1006.93 1007.67 1008.31 1008.76 1009.29 1010.03 1010.60 1011.10 1011.51 1011.91 1012.73 1013.36 1013.54 1013.64 1014.46
1015.70 1015.79 1015.37 1014.48 1014.22 1013.09 1013.09 1010.67 1009.90 1010.70 1010.64 1010.80 1011.08 1011.03 1010.75 1010.15 1009.43 1008.94 1008.03 1006.78 1005.94 1004.52 1003.41 1002.42 1000.92 1000.91 1001.16 1002.02 1002.66 1003.06 1003.53 1003.82 1004.12 1004.96 1006.09 1006.74 1007.56 1008.14 1008.46 1009.38 1009.99 1010.53 1010.95 1011.30 1011.88 1012.48 1012.89 1013.04 1013.41
1015.82 1015.67 1015.17 1014.91 1014.46 1014.14 1012.85 1012.46 1010.11 1010.95 1011.10 1011.37 1011.60 1011.56 1011.31 1010.95 1010.31 1009.35 1008.67 1007.74 1006.48 1004.90 1003.60 1002.28 1000.91 1000.33 1000.52 1000.82 1002.02 1002.68 1002.87 1003.11 1003.77 1004.47 1005.17 1005.87 1006.24 1007.19 1007.90 1008.70 1009.34 1009.85 1010.35 1010.78 1011.20 1011.72 1012.31 1012.61 1012.64
1016.36 1015.59 1015.03 1015.16 1014.40 1013.63 1013.30 1012.86 1010.52 1011.29 1012.41 1012.47 1012.37 1011.99 1011.84 1011.34 1010.68 1009.78 1009.32 1008.27 1006.78 1005.30 1004.15 1002.59 1001.05 1000.14 1000.20 1000.59 1001.71 1001.70 1002.64 1002.89 1003.02 1003.87 1004.71 1004.86 1005.43 1006.57 1007.17 1007.87 1008.46 1009.19 1009.74 1010.14 1010.52 1011.22 1011.59 1011.93 1012.33
1016.14 1015.36 1014.96 1014.48 1013.80 1013.17 1013.19 1012.70 1011.05 1012.27 1013.16 1013.33 1013.23 1012.96 1012.59 1012.06 1011.20 1010.03 1009.03 1008.42 1007.36 1005.83 1004.66 1003.37 1001.95 1000.51 1000.40 1000.09 1000.72 1000.88 1002.32 1002.58 1002.12 1002.18 1003.34 1003.90 1004.57 1005.79 1006.06 1007.15 1007.80 1008.20 1008.87 1009.51 1009.88 1010.55 1011.01 1011.59 1011.85
1016.77 1016.86 1016.70 1016.33 1015.01 1013.38 1012.76 1011.77 1010.96 1012.37 1013.29 1013.73 1013.73 1013.49 1012.99 1012.18 1011.35 1010.44 1009.41 1009.03 1008.19 1006.85 1005.40 1004.36 1003.31 1001.94 1000.58 1000.50 1001.16 1001.48 1001.10 1001.05 1001.20 1001.79 1001.92 1002.84 1003.77 1004.82 1005.67 1007.11 1007.29 1007.68 1008.18 1008.69 1009.28 1009.81 1010.22 1010.84 1011.41
1017.02 1017.23 1017.86 1017.40 1016.31 1014.83 1012.04 1011.68 1011.85 1012.43 1012.99 1013.69 1013.73 1013.26 1012.74 1012.29 1011.53 1010.48 1009.59 1009.13 1008.42 1007.53 1006.39 1005.00 1004.09 1003.21 1002.26 1001.26 1000.07 1000.36 1000.32 1000.58 1000.76 1001.39 1001.88 1002.43 1003.34 1004.05 1004.99 1005.96 1006.51 1007.26 1007.67 1007.99 1008.43 1008.81 1009.55 1010.11 1010.77
1017.26 1017.80 1017.88 1017.84 1016.55 1014.43 1011.73 1011.08 1011.31 1012.30 1013.25 1013.97 1013.62 1013.31 1013.08 1012.52 1011.72 1010.68 1009.60 1009.01 1008.26 1007.76 1006.97 1005.74 1004.70 1003.70 1003.09 1002.05 1000.93 999.79 999.77 1000.09 1000.81 1001.41 1002.14 1002.55 1003.03 1003.61 1004.31 1005.17 1005.96 1006.69 1007.14 1007.57 1008.11 1008.45 1009.12 1009.54 1009.99
1017.44 1017.53 1017.96 1018.38 1017.56 1015.66 1012.93 1010.67 1011.78 1012.89 1013.85 1013.96 1013.90 1013.58 1013.16 1012.47 1011.75 1010.83 1009.81 1008.99 1008.16 1007.47 1006.99 1006.16 1005.29 1003.96 1003.24 1002.70 1002.00 1000.84 999.67 999.51 999.60 1000.77 1001.32 1001.75 1002.45 1003.06 1003.73 1004.39 1005.08 1005.90 1006.52 1007.22 1007.79 1008.08 1008.70 1009.12 1009.41
1017.22 1017.34 1017.70 1017.97 1016.94 1016.10 1014.80 1011.31 1011.96 1012.86 1013.66 1013.84 1013.66 1013.40 1013.05 1012.58 1011.68 1011.09 1010.16 1009.15 1008.24 1007.36 1006.64 1005.88 1005.78 1004.58 1003.73 1002.98 1002.32 1001.56 1000.61 999.62 999.90 1000.02 1000.43 1000.97 1001.51 1002.29 1002.87 1003.58 1004.36 1005.02 1005.73 1006.41 1007.01 1007.42 1007.88 1008.20 1008.81
Wind_Speed
3 2 0 1 4 2 2 1 3 2 2 4 9 7 9 11 9 11 5 14 10 20 18 20 22 22 22 22 23 24 24 23 22 22 23 23 21 20 18 17 16 15 15 14 13 13 12 12 11
2 2 1 1 4 6 4 1 4 5 11 10 8 11 7 3 5 11 7 4 14 19 16 18 19 21 21 21 23 23 23 23 23 22 23 22 22 20 18 17 15 15 15 14 14 13 12 11 11
2 3 1 1 2 9 4 2 5 10 10 11 8 9 7 9 14 13 9 6 14 19 17 16 16 20 20 19 20 22 23 23 22 22 23 22 21 20 18 16 15 15 15 14 14 13 12 11 10
1 2 4 3 8 2 4 4 8 14 8 10 13 9 5 11 10 14 12 7 13 16 18 16 17 15 19 20 21 21 20 22 21 21 22 22 21 19 17 16 15 14 14 14 13 12 11 11 10
3 1 2 3 3 3 4 9 8 8 9 12 14 12 14 5 13 15 7 6 12 14 17 18 16 17 17 19 20 20 20 20 21 21 21 21 20 19 18 15 14 14 13 12 12 12 9 8 8
3 1 3 5 2 3 2 15 7 12 12 17 15 22 10 0 25 22 9 7 11 13 12 17 17 18 18 18 19 20 20 19 19 20 20 19 19 18 17 16 14 14 12 12 12 11 9 8 6
3 1 1 1 1 3 4 16 12 13 15 10 17 15 11 15 26 24 8 7 10 12 14 14 16 15 17 18 19 19 18 18 19 18 19 18 18 17 16 16 14 13 12 11 10 11 9 8 6
3 1 2 1 2 3 7 12 10 15 10 13 13 6 16 25 28 19 4 5 9 12 14 14 14 15 15 14 17 19 19 18 18 18 18 18 17 15 14 13 13 12 11 11 9 8 8 7 6
1 2 2 1 3 8 13 13 11 10 13 14 10 19 22 22 25 17 8 5 8 11 15 16 15 14 14 14 14 16 20 20 19 17 17 15 12 14 15 13 14 13 11 9 9 7 6 6 5
2 0 2 0 6 9 13 15 16 13 17 16 18 19 21 20 21 19 16 12 11 14 15 16 16 15 14 11 13 14 14 12 13 15 16 12 13 13 12 11 12 12 10 8 7 6 5 6 4
2 1 0 3 5 10 13 16 12 14 14 17 21 20 21 19 17 18 18 16 16 14 12 17 15 15 16 12 10 8 8 8 9 14 14 12 10 10 9 7 8 8 9 7 8 7 5 5 4
1 1 2 4 9 10 14 12 13 11 16 16 18 16 18 21 15 14 16 18 16 15 18 16 15 14 15 11 11 11 10 9 9 12 15 10 8 10 9 7 8 8 7 7 6 5 4 5 4
2 1 3 7 11 8 12 12 13 14 14 15 15 15 18 19 20 15 13 15 16 18 19 20 16 13 14 14 11 11 11 11 12 11 13 12 11 10 9 8 8 7 6 7 6 5 4 4 5
2 6 8 6 6 10 10 17 9 11 18 17 16 16 17 19 20 18 15 13 14 17 20 21 18 16 17 15 15 11 11 11 11 11 12 13 11 10 10 9 9 8 6 6 5 5 4 4 3
4 8 6 5 7 8 7 14 14 15 16 20 18 18 17 19 21 20 16 15 12 15 20 22 21 21 20 20 16 13 12 12 12 11 14 14 13 12 11 10 9 8 7 7 5 5 4 4 3
2 1 9 5 14 7 6 17 18 18 19 21 20 19 19 20 22 22 19 16 15 13 15 20 19 22 21 17 16 13 13 13 12 11 12 16 14 13 11 10 10 9 7 7 6 5 5 3 2
2 10 16 10 6 11 9 20 16 21 21 21 21 21 20 22 23 21 21 18 17 16 13 19 20 22 23 18 14 15 16 13 13 12 12 15 15 15 12 10 10 10 8 7 6 5 5 4 3
15 15 8 15 11 15 17 21 20 19 20 21 22 20 21 21 23 22 23 21 19 16 14 17 19 21 19 14 12 12 13 14 13 12 12 16 13 15 13 10 11 10 8 7 7 7 5 3 4
9 10 14 15 13 15 21 23 23 17 15 16 18 19 20 20 21 21 21 20 18 15 12 15 20 21 14 13 13 14 14 13 13 12 15 15 13 14 14 10 11 10 9 10 10 8 8 6 6
5 11 14 9 7 16 19 27 18 8 9 11 15 17 18 19 17 18 21 21 19 18 16 16 21 21 18 15 13 12 12 12 13 12 13 16 17 17 14 12 11 12 9 10 10 10 7 5 8
7 9 13 18 20 16 10 14 1 4 7 12 15 16 17 19 21 21 23 22 22 20 18 16 17 22 20 20 12 10 9 6 10 13 11 15 17 18 16 15 12 12 11 10 11 11 11 8 8
10 4 14 19 16 9 7 9 6 6 9 14 16 19 19 21 21 20 22 24 23 22 19 17 15 19 18 17 14 20 15 15 13 11 12 13 18 17 17 16 15 12 11 10 12 11 10 8 9
8 14 16 16 11 8 1 7 4 9 8 15 18 21 21 21 22 23 23 24 24 21 20 17 14 16 18 17 14 16 19 14 11 10 13 14 14 17 17 17 15 13 12 12 12 12 12 10 9
11 11 2 3 2 3 3 6 10 5 6 13 19 22 21 23 24 22 21 22 23 20 20 19 13 16 16 16 19 18 20 14 13 14 12 11 10 11 14 16 15 13 13 13 12 12 14 11 9
13 10 5 3 2 4 1 11 9 1 6 11 15 19 20 20 21 23 23 22 23 25 22 20 17 11 17 16 15 16 20 19 17 16 12 11 11 11 14 15 15 13 13 13 12 12 12 12 11
4 5 3 6 5 12 15 7 3 9 4 8 13 16 18 20 21 21 22 21 21 23 23 21 20 17 10 17 19 21 21 15 14 15 13 12 11 12 14 15 13 14 15 14 13 11 11 11 12
3 2 2 4 8 7 4 5 8 7 6 14 18 20 21 21 21 23 23 20 20 20 22 20 19 16 15 17 14 15 13 14 13 11 13 11 12 11 13 14 15 14 14 15 14 12 13 12 12
3 2 3 1 6 7 6 14 10 5 12 14 18 19 21 20 22 21 19 22 20 19 19 19 18 16 14 15 14 10 16 13 10 10 13 12 11 13 14 15 14 14 14 15 14 11 12 13 11
2 3 2 3 4 5 9 6 3 1 7 13 16 18 20 20 20 20 22 21 21 20 18 17 17 18 13 13 12 12 8 16 13 13 14 14 14 15 15 15 15 15 16 14 12 11 12 14 12
8 5 4 3 3 6 8 14 8 2 6 13 16 18 19 19 20 19 22 21 22 21 20 19 15 15 15 14 11 10 12 13 15 14 15 15 15 14 15 14 15 15 14 14 15 15 13 14 15
Wind_Direction
0 55 171 231 228 269 248 259 313 253 17 349 299 287 316 292 275 289 344 202 173 167 171 174 154 149 152 151 148 145 146 148 150 148 143 144 145 148 150 149 143 145 146 142 137 132 136 139 138
15 127 129 102 237 237 234 246 219 31 337 331 344 338 335 305 312 317 329 173 166 156 170 175 162 150 151 153 149 145 146 148 150 148 146 146 148 151 153 154 149 150 150 147 143 139 144 146 143
134 14 256 86 187 239 260 143 42 339 340 355 350 329 326 354 11 354 348 172 165 157 168 170 169 154 151 152 147 146 147 149 149 150 148 149 151 154 156 157 154 154 154 152 147 147 149 150 147
119 128 103 238 234 324 326 3 331 332 345 2 347 289 355 48 19 342 336 174 177 169 161 160 163 163 156 152 148 148 150 150 151 151 151 153 154 156 157 159 156 157 158 158 152 149 152 153 155
54 108 155 222 251 288 304 328 330 18 10 345 342 325 321 65 23 7 344 189 186 179 165 162 164 163 164 155 150 151 152 154 152 152 154 156 157 157 156 158 157 158 162 160 154 150 155 159 157
107 297 193 236 232 302 353 6 349 10 350 329 337 324 310 20 355 348 333 209 190 176 185 164 165 167 167 163 156 155 155 154 154 153 155 158 159 157 157 158 159 161 165 161 158 153 158 162 157
101 160 358 296 335 289 79 356 12 348 336 336 324 304 304 326 335 336 314 214 192 184 182 176 172 173 170 166 162 159 158 157 155 156 156 160 161 160 159 158 160 162 165 165 161 156 160 162 154
102 129 134 120 48 299 351 352 331 341 332 342 348 328 317 327 331 337 325 218 201 193 191 186 177 179 180 176 168 163 160 160 157 157 158 159 160 160 161 154 158 162 167 168 161 163 158 157 150
160 142 182 329 359 313 326 329 336 320 299 317 295 311 309 316 321 321 317 249 220 216 202 194 187 181 185 181 178 169 165 161 158 157 157 155 173 175 170 178 156 165 174 173 161 164 160 161 148
41 200 140 59 311 317 318 321 320 315 315 309 303 303 307 317 321 320 308 279 237 218 213 203 193 185 186 186 179 184 177 175 174 170 169 175 173 182 188 173 169 168 175 175 169 166 160 204 195
76 60 157 291 319 334 319 311 322 313 312 323 314 308 308 313 315 316 322 293 276 224 207 211 200 187 190 189 181 185 180 177 180 176 173 175 176 179 186 183 184 188 185 198 189 182 199 195 222
262 220 275 313 317 312 307 316 301 308 307 306 307 304 306 307 308 309 313 315 266 230 212 202 202 194 192 190 188 183 183 182 182 181 177 172 177 179 176 194 191 197 193 197 202 197 182 195 220
155 304 262 298 295 297 293 293 307 294 310 312 305 301 308 309 304 302 302 309 283 243 223 206 193 188 192 193 192 190 190 185 183 183 182 177 181 183 179 196 194 197 197 198 196 203 200 199 219
318 286 297 293 294 297 301 310 303 300 313 312 307 304 306 307 303 305 298 307 308 255 234 212 198 186 193 194 190 190 189 186 187 183 186 187 184 183 184 189 195 197 198 194 199 200 205 215 227
323 309 318 269 337 303 326 293 299 309 316 314 307 309 309 308 306 300 299 293 285 282 241 218 204 195 195 198 189 190 185 187 192 188 186 190 191 189 188 187 199 199 200 192 192 197 204 216 217
336 283 333 338 311 298 326 297 307 315 318 307 305 302 299 302 300 300 301 299 291 283 254 222 209 204 194 195 192 191 190 188 195 192 187 190 191 193 188 190 200 198 196 196 199 201 209 207 199
46 315 313 318 281 311 304 298 313 306 304 302 300 299 295 297 296 294 295 304 303 289 274 226 214 207 203 190 189 189 189 193 192 193 193 194 195 192 195 196 197 194 197 197 195 193 213 179 179
308 317 303 310 310 312 299 293 304 304 298 299 305 305 301 299 292 290 304 306 301 289 268 258 210 206 198 195 191 191 188 194 195 196 195 193 199 196 201 197 194 192 196 196 195 195 185 184 167
290 285 302 304 307 319 303 301 307 312 306 317 331 330 317 306 309 307 316 314 311 304 300 255 211 204 187 193 195 192 192 186 192 200 200 198 195 195 198 200 193 192 197 198 190 186 177 171 160
312 308 314 299 301 313 307 298 311 319 7 18 7 360 355 345 336 334 332 326 325 314 309 276 219 200 191 192 201 201 196 191 192 193 201 204 203 197 194 195 194 191 191 193 189 185 173 175 184
321 300 314 300 315 291 299 289 67 55 25 23 11 356 353 347 338 337 334 332 333 325 317 306 230 203 196 196 182 190 184 174 195 196 192 204 203 202 200 194 195 191 196 192 188 187 187 169 181
314 277 298 303 321 313 15 292 310 354 353 17 7 359 352 346 340 334 334 335 335 337 326 314 252 208 199 193 184 187 190 190 200 191 190 193 204 207 200 197 197 194 197 196 190 187 191 192 177
299 310 290 300 287 290 77 254 320 348 354 3 356 354 354 348 337 334 335 331 333 338 338 330 272 209 196 186 193 195 200 207 191 190 189 194 190 204 200 199 198 195 198 199 199 186 189 194 197
319 287 309 190 218 267 59 325 294 346 359 350 349 353 355 345 335 331 334 332 337 340 348 344 311 221 199 188 191 191 207 196 185 186 191 189 184 195 199 199 197 197 202 200 198 197 189 194 199
350 350 350 325 313 285 146 303 278 24 47 7 348 346 346 342 337 331 337 340 335 341 351 354 353 263 210 197 200 205 211 208 198 180 186 178 189 196 198 197 198 195 199 200 196 193 193 192 193
354 349 34 304 299 301 296 241 333 147 77 11 3 351 344 344 339 331 335 334 331 335 342 352 356 355 275 205 202 206 207 207 200 194 187 187 192 194 187 203 200 198 196 197 195 195 195 193 200
106 305 356 248 263 274 236 258 187 187 343 360 354 349 351 343 338 331 331 332 333 337 334 342 350 356 353 344 211 207 208 214 218 203 198 186 189 189 186 191 196 199 198 198 191 198 195 189 196
287 68 247 156 293 286 259 284 261 283 343 339 347 343 341 338 335 331 332 333 333 336 328 337 341 353 348 350 348 228 213 202 207 200 199 195 190 191 188 189 193 200 201 200 196 201 195 194 196
201 199 170 245 247 285 301 294 125 350 335 333 335 335 336 334 333 332 332 330 328 329 332 335 336 341 349 349 343 337 260 209 202 202 198 195 188 189 193 189 194 203 203 199 197 201 195 202 199
243 241 179 245 243 241 285 283 124 91 345 339 335 327 331 328 327 329 326 327 329 326 332 331 329 333 340 343 334 335 335 219 203 206 200 196 194 197 196 192 197 202 201 193 196 201 194 200 199